OK1FET-14 Weather Reports


Display with metric or nautical units.
time (UTC)temp
F
wind
direction
speed
MPH
gust
MPH
rain 1hr
in
rain 24hr
in
rain mn
in
humidity
%
barometer
mb
20260906014549 54 268 5.0 6.0 0.00 0.00 0.00 76 1026.5
20260906014109 55 282 4.0 8.0 0.00 0.00 0.00 74 1026.4
20260906013629 55 289 5.0 7.0 0.00 0.00 0.00 74 1026.3
20260906013148 55 290 5.0 8.0 0.00 0.00 0.00 73 1026.2
20260906012708 55 311 5.0 8.0 0.00 0.00 0.00 73 1026.2
20260906012228 55 298 4.0 7.0 0.00 0.00 0.00 73 1026.3
20260906011748 55 289 5.0 9.0 0.00 0.00 0.00 72 1026.2
20260906011307 55 297 5.0 9.0 0.00 0.00 0.00 72 1026.2
20260906010827 55 309 4.0 6.0 0.00 0.00 0.00 72 1026.2
20260906010347 55 292 5.0 8.0 0.00 0.00 0.00 71 1026.1
20260906005907 55 309 5.0 14.0 0.00 0.00 0.00 71 1026.1
20260906005426 55 300 7.0 9.0 0.00 0.00 0.00 71 1026.1
20260906004946 56 286 7.0 10.0 0.00 0.00 0.00 71 1026.2
20260906004506 55 306 5.0 8.0 0.00 0.00 0.00 71 1026.2
20260906004026 56 294 7.0 9.0 0.00 0.00 0.00 71 1026.2
20260906003545 56 310 6.0 10.0 0.00 0.00 0.00 71 1026.3
20260906003105 56 286 8.0 13.0 0.00 0.00 0.00 71 1026.3
20260906002625 56 288 6.0 12.0 0.00 0.00 0.00 71 1026.2
20260906002145 56 296 6.0 11.0 0.00 0.00 0.00 72 1026.3
20260906001704 56 286 6.0 10.0 0.00 0.00 0.00 72 1026.2
20260906001224 56 300 5.0 7.0 0.00 0.00 0.00 72 1026.3
20260906000744 56 304 5.0 8.0 0.00 0.00 0.00 72 1026.2
20260906000304 56 295 5.0 8.0 0.00 0.00 0.00 72 1026.1
20260905235823 56 292 5.0 9.0 0.00 0.00 0.00 72 1026.1
20260905235343 56 307 4.0 8.0 0.00 0.00 0.00 71 1026.0
20260905234903 56 312 4.0 6.0 0.00 0.00 0.00 71 1026.0
20260905234422 56 301 3.0 5.0 0.00 0.00 0.00 70 1026.0
20260905233942 56 309 3.0 5.0 0.00 0.00 0.00 69 1025.9
20260905233502 56 298 4.0 7.0 0.00 0.00 0.00 69 1025.9
20260905233021 56 297 5.0 8.0 0.00 0.00 0.00 69 1025.8
20260905232541 56 298 5.0 9.0 0.00 0.00 0.00 69 1025.8
20260905232101 57 292 5.0 10.0 0.00 0.00 0.00 68 1025.7
20260905231621 57 300 5.0 8.0 0.00 0.00 0.00 68 1025.8
20260905231140 57 293 6.0 9.0 0.00 0.00 0.00 68 1025.7
20260905230700 57 314 6.0 9.0 0.00 0.00 0.00 68 1025.7
20260905230220 57 290 5.0 9.0 0.00 0.00 0.00 68 1025.7
20260905225739 57 285 5.0 8.0 0.00 0.00 0.00 67 1025.6
20260905225259 57 286 4.0 7.0 0.00 0.00 0.00 67 1025.7
20260905224819 57 285 4.0 7.0 0.00 0.00 0.00 66 1025.6
20260905224338 57 286 4.0 7.0 0.00 0.00 0.00 66 1025.7
20260905223858 57 292 4.0 6.0 0.00 0.00 0.00 66 1025.6
20260905223418 58 278 6.0 8.0 0.00 0.00 0.00 65 1025.5
20260905222937 58 289 6.0 10.0 0.00 0.00 0.00 65 1025.6
20260905222457 58 294 5.0 10.0 0.00 0.00 0.00 65 1025.5
20260905222017 58 285 4.0 8.0 0.00 0.00 0.00 65 1025.6
20260905221536 58 280 5.0 8.0 0.00 0.00 0.00 65 1025.5
20260905221056 58 287 5.0 8.0 0.00 0.00 0.00 64 1025.6
20260905220616 58 294 8.0 13.0 0.00 0.00 0.00 64 1025.5
20260905220135 58 278 6.0 9.0 0.00 0.00 0.00 64 1025.5
20260905215655 58 300 6.0 8.0 0.00 0.00 0.00 64 1025.5
20260905215215 58 312 6.0 9.0 0.00 0.00 0.00 64 1025.5
20260905214734 58 291 5.0 9.0 0.00 0.00 0.00 64 1025.4
20260905214254 58 297 4.0 6.0 0.00 0.00 0.00 63 1025.4
20260905213814 58 288 4.0 7.0 0.00 0.00 0.00 63 1025.4
20260905213333 58 284 4.0 6.0 0.00 0.00 0.00 63 1025.4
20260905212853 58 273 4.0 7.0 0.00 0.00 0.00 62 1025.4
20260905212412 58 287 5.0 9.0 0.00 0.00 0.00 62 1025.3
20260905211932 58 279 5.0 9.0 0.00 0.00 0.00 63 1025.2
20260905211452 58 263 4.0 5.0 0.00 0.00 0.00 63 1025.3
20260905211011 57 257 4.0 6.0 0.00 0.00 0.00 63 1025.2
20260905210531 57 252 4.0 5.0 0.00 0.00 0.00 63 1025.2
20260905210051 57 256 4.0 7.0 0.00 0.00 0.00 62 1025.2
20260905205610 57 235 4.0 5.0 0.00 0.00 0.00 62 1025.1
20260905205130 57 235 4.0 6.0 0.00 0.00 0.00 62 1025.1
20260905204650 57 228 3.0 4.0 0.00 0.00 0.00 62 1025.1
20260905204209 57 229 3.0 5.0 0.00 0.00 0.00 62 1025.0
20260905203729 58 248 3.0 5.0 0.00 0.00 0.00 61 1025.0
20260905203249 58 247 4.0 6.0 0.00 0.00 0.00 60 1024.9
20260905202808 59 267 5.0 8.0 0.00 0.00 0.00 59 1024.9
20260905202328 59 261 5.0 8.0 0.00 0.00 0.00 59 1024.8
20260905201847 59 271 4.0 8.0 0.00 0.00 0.00 59 1024.8
20260905201407 59 254 6.0 8.0 0.00 0.00 0.00 58 1024.6
20260905200927 59 274 4.0 8.0 0.00 0.00 0.00 58 1024.6
20260905200446 59 276 5.0 7.0 0.00 0.00 0.00 58 1024.5
20260905200006 59 263 4.0 8.0 0.00 0.00 0.00 58 1024.5
20260905195525 59 261 4.0 7.0 0.00 0.00 0.00 57 1024.4
20260905195045 59 276 5.0 8.0 0.00 0.00 0.00 57 1024.4
20260905194605 60 270 5.0 10.0 0.00 0.00 0.00 56 1024.3
20260905194124 60 286 7.0 13.0 0.00 0.00 0.00 56 1024.2
20260905193644 60 286 7.0 12.0 0.00 0.00 0.00 56 1024.2
20260905193203 60 281 6.0 9.0 0.00 0.00 0.00 57 1024.2
20260905192723 59 275 6.0 11.0 0.00 0.00 0.00 57 1024.2
20260905192243 59 274 6.0 9.0 0.00 0.00 0.00 57 1024.1
20260905191802 59 270 6.0 10.0 0.00 0.00 0.00 57 1024.2
20260905191322 59 273 6.0 9.0 0.00 0.00 0.00 57 1024.0
20260905190841 60 269 7.0 12.0 0.00 0.00 0.00 57 1024.0
20260905190401 60 258 6.0 10.0 0.00 0.00 0.00 57 1024.0
20260905185920 60 255 7.0 9.0 0.00 0.00 0.00 57 1024.0
20260905185440 60 272 6.0 8.0 0.00 0.00 0.00 57 1023.8
20260905184959 60 264 8.0 11.0 0.00 0.00 0.00 57 1023.9
20260905184519 60 267 7.0 8.0 0.00 0.00 0.00 57 1023.7
20260905184039 60 256 6.0 9.0 0.00 0.00 0.00 57 1023.7
20260905183558 60 255 7.0 9.0 0.00 0.00 0.00 56 1023.7
20260905183118 60 272 7.0 10.0 0.00 0.00 0.00 56 1023.6
20260905182637 61 270 6.0 9.0 0.00 0.00 0.00 56 1023.6
20260905182157 61 264 7.0 11.0 0.00 0.00 0.00 56 1023.4
20260905181716 61 266 7.0 10.0 0.00 0.00 0.00 56 1023.4
20260905181236 61 266 6.0 9.0 0.00 0.00 0.00 56 1023.3
20260905180755 61 256 5.0 8.0 0.00 0.00 0.00 56 1023.3
20260905180315 61 258 6.0 8.0 0.00 0.00 0.00 55 1023.3
20260905175834 62 266 6.0 9.0 0.00 0.00 0.00 54 1023.2
20260905175354 62 267 6.0 10.0 0.00 0.00 0.00 53 1023.1
20260905174913 62 279 6.0 10.0 0.00 0.00 0.00 53 1023.1
20260905174433 62 274 6.0 9.0 0.00 0.00 0.00 53 1023.0
20260905173952 63 271 5.0 10.0 0.00 0.00 0.00 52 1022.9
20260905173511 63 269 7.0 11.0 0.00 0.00 0.00 51 1022.7
20260905173031 64 269 6.0 10.0 0.00 0.00 0.00 50 1022.7
20260905172550 64 270 7.0 12.0 0.00 0.00 0.00 49 1022.6
20260905172110 65 290 7.0 11.0 0.00 0.00 0.00 49 1022.6
20260905171629 65 273 7.0 14.0 0.00 0.00 0.00 48 1022.4
20260905171148 65 288 6.0 12.0 0.00 0.00 0.00 49 1022.5
20260905170708 66 259 7.0 11.0 0.00 0.00 0.00 48 1022.5
20260905170227 65 264 7.0 13.0 0.00 0.00 0.00 48 1022.3
20260905165746 65 279 6.0 9.0 0.00 0.00 0.00 48 1022.3
20260905165306 66 283 6.0 11.0 0.00 0.00 0.00 47 1022.2
20260905164825 65 261 7.0 12.0 0.00 0.00 0.00 48 1022.2
20260905164344 65 278 7.0 13.0 0.00 0.00 0.00 47 1022.1
20260905163904 66 285 6.0 12.0 0.00 0.00 0.00 47 1022.1
20260905163423 67 274 6.0 11.0 0.00 0.00 0.00 46 1022.0
20260905162942 66 294 6.0 11.0 0.00 0.00 0.00 47 1021.9
20260905162501 67 289 5.0 8.0 0.00 0.00 0.00 46 1021.8
20260905162021 67 249 13.0 21.0 0.00 0.00 0.00 45 1021.8
20260905161540 68 265 9.0 15.0 0.00 0.00 0.00 43 1021.4
20260905161059 70 270 11.0 19.0 0.00 0.00 0.00 41 1021.6
20260905160618 69 279 10.0 15.0 0.00 0.00 0.00 42 1021.5
20260905160137 70 260 8.0 14.0 0.00 0.00 0.00 41 1021.4
20260905155656 68 255 9.0 12.0 0.00 0.00 0.00 44 1021.5
20260905155215 69 264 10.0 17.0 0.00 0.00 0.00 42 1021.3
20260905154735 69 267 11.0 17.0 0.00 0.00 0.00 41 1021.5
20260905154254 72 285 7.0 13.0 0.00 0.00 0.00 40 1021.4
20260905153813 71 287 9.0 20.0 0.00 0.00 0.00 40 1021.2
20260905153332 73 286 11.0 17.0 0.00 0.00 0.00 38 1021.4
20260905152851 73 273 12.0 18.0 0.00 0.00 0.00 38 1020.8
20260905152410 74 267 9.0 14.0 0.00 0.00 0.00 39 1021.3
20260905151929 73 262 8.0 15.0 0.00 0.00 0.00 39 1021.3
20260905151448 71 269 11.0 15.0 0.00 0.00 0.00 41 1021.2
20260905151007 71 260 9.0 17.0 0.00 0.00 0.00 41 1021.3
20260905150526 74 281 9.0 15.0 0.00 0.00 0.00 39 1021.1
20260905150045 75 274 11.0 18.0 0.00 0.00 0.00 38 1021.1
20260905145603 76 267 9.0 19.0 0.00 0.00 0.00 37 1021.1
20260905145122 77 289 7.0 11.0 0.00 0.00 0.00 37 1021.2
20260905144641 76 280 7.0 12.0 0.00 0.00 0.00 38 1021.1
20260905144200 75 254 11.0 19.0 0.00 0.00 0.00 38 1021.1
20260905143719 74 261 14.0 22.0 0.00 0.00 0.00 36 1020.8
20260905143238 74 264 13.0 19.0 0.00 0.00 0.00 37 1020.8
20260905142757 74 261 18.0 26.0 0.00 0.00 0.00 37 1020.6
20260905142316 75 257 11.0 18.0 0.00 0.00 0.00 37 1021.1
20260905141835 76 238 8.0 13.0 0.00 0.00 0.00 39 1021.0
20260905141354 74 238 15.0 26.0 0.00 0.00 0.00 38 1021.1
20260905140913 74 235 14.0 20.0 0.00 0.00 0.00 38 1021.0
20260905140432 74 255 16.0 21.0 0.00 0.00 0.00 39 1020.9
20260905135951 74 237 13.0 24.0 0.00 0.00 0.00 38 1021.0
20260905135510 73 259 14.0 21.0 0.00 0.00 0.00 42 1021.1
20260905135029 72 248 13.0 20.0 0.00 0.00 0.00 40 1021.0
20260905134548 71 229 14.0 18.0 0.00 0.00 0.00 42 1021.1
20260905134107 73 250 11.0 19.0 0.00 0.00 0.00 41 1021.1
20260905133626 71 238 14.0 21.0 0.00 0.00 0.00 42 1021.1
20260905133145 71 241 11.0 18.0 0.00 0.00 0.00 42 1021.0
20260905132704 71 248 14.0 20.0 0.00 0.00 0.00 42 1021.1
20260905132223 72 252 15.0 21.0 0.00 0.00 0.00 41 1021.1
20260905131742 73 261 12.0 20.0 0.00 0.00 0.00 40 1020.9
20260905131301 72 238 16.0 21.0 0.00 0.00 0.00 42 1020.9
20260905130820 69 235 13.0 17.0 0.00 0.00 0.00 45 1021.0
20260905130339 70 229 13.0 19.0 0.00 0.00 0.00 44 1021.0
20260905125858 68 248 13.0 20.0 0.00 0.00 0.00 45 1020.7
20260905125417 70 244 12.0 19.0 0.00 0.00 0.00 44 1021.2
20260905124937 70 251 14.0 20.0 0.00 0.00 0.00 43 1021.1
20260905124456 67 209 15.0 20.0 0.00 0.00 0.00 46 1021.0
20260905124015 70 242 15.0 21.0 0.00 0.00 0.00 44 1021.0
20260905123534 71 229 15.0 19.0 0.00 0.00 0.00 42 1021.0
20260905123053 71 252 12.0 16.0 0.00 0.00 0.00 44 1021.2
20260905122612 69 263 11.0 19.0 0.00 0.00 0.00 47 1021.3
20260905122131 67 252 10.0 14.0 0.00 0.00 0.00 49 1021.2
20260905121651 67 260 9.0 15.0 0.00 0.00 0.00 48 1021.4
20260905121210 68 263 10.0 15.0 0.00 0.00 0.00 48 1021.3
20260905120729 67 256 8.0 15.0 0.00 0.00 0.00 48 1021.3
20260905120248 68 275 8.0 14.0 0.00 0.00 0.00 48 1021.2
20260905115807 69 264 8.0 17.0 0.00 0.00 0.00 47 1021.5
20260905115326 70 275 10.0 18.0 0.00 0.00 0.00 45 1021.5
20260905114845 70 237 9.0 16.0 0.00 0.00 0.00 47 1021.5
20260905114405 68 261 9.0 15.0 0.00 0.00 0.00 48 1021.5
20260905113924 69 231 14.0 23.0 0.00 0.00 0.00 47 1021.3
20260905113443 69 252 13.0 20.0 0.00 0.00 0.00 47 1021.5
20260905113002 67 239 13.0 18.0 0.00 0.00 0.00 49 1021.5
20260905112521 67 242 12.0 18.0 0.00 0.00 0.00 49 1021.6
20260905112041 69 259 8.0 15.0 0.00 0.00 0.00 49 1021.6
20260905111600 70 240 11.0 18.0 0.00 0.00 0.00 48 1021.6
20260905111119 68 273 10.0 17.0 0.00 0.00 0.00 48 1021.4
20260905110638 67 264 11.0 18.0 0.00 0.00 0.00 55 1021.8
20260905110158 65 235 13.0 21.0 0.00 0.00 0.00 54 1021.6
20260905105717 66 244 13.0 20.0 0.00 0.00 0.00 54 1021.5
20260905105236 64 260 12.0 16.0 0.00 0.00 0.00 54 1021.2
20260905104756 64 240 14.0 20.0 0.00 0.00 0.00 56 1021.5
20260905104315 65 243 13.0 18.0 0.00 0.00 0.00 55 1021.4
20260905103834 64 249 11.0 16.0 0.00 0.00 0.00 57 1021.4
20260905103354 66 237 10.0 14.0 0.00 0.00 0.00 55 1021.4
20260905102913 66 261 11.0 16.0 0.00 0.00 0.00 56 1021.3
20260905102432 64 249 11.0 17.0 0.00 0.00 0.00 57 1021.3
20260905101952 65 264 11.0 16.0 0.00 0.00 0.00 56 1021.4
20260905101511 65 256 12.0 21.0 0.00 0.00 0.00 53 1021.3
20260905101030 66 235 14.0 23.0 0.00 0.00 0.00 53 1021.3
20260905100550 66 229 18.0 23.0 0.00 0.00 0.00 52 1021.4
20260905100109 65 249 18.0 27.0 0.00 0.00 0.00 55 1021.1
20260905095628 66 223 20.0 27.0 0.00 0.00 0.00 52 1021.2
20260905095148 66 235 12.0 19.0 0.00 0.00 0.00 56 1021.3
20260905094707 65 237 17.0 22.0 0.00 0.00 0.00 55 1021.1
20260905094226 66 235 13.0 19.0 0.00 0.00 0.00 55 1020.9
20260905093746 64 242 14.0 18.0 0.00 0.00 0.00 57 1021.2
20260905093305 63 238 13.0 18.0 0.00 0.00 0.00 59 1021.4
20260905092824 64 225 17.0 21.0 0.00 0.00 0.00 58 1021.3
20260905092344 65 238 14.0 20.0 0.00 0.00 0.00 57 1021.1
20260905091903 66 235 16.0 23.0 0.00 0.00 0.00 57 1021.1
20260905091422 63 231 17.0 24.0 0.00 0.00 0.00 61 1021.3
20260905090942 63 234 13.0 19.0 0.00 0.00 0.00 62 1021.3
20260905090501 65 243 13.0 18.0 0.00 0.00 0.00 60 1021.3
20260905090021 62 229 15.0 21.0 0.00 0.00 0.00 65 1021.3
20260905085540 62 224 18.0 24.0 0.00 0.00 0.00 66 1021.2
20260905085059 62 231 17.0 22.0 0.00 0.00 0.00 66 1021.0
20260905084619 63 226 13.0 18.0 0.00 0.00 0.00 70 1021.3
20260905084138 61 221 16.0 20.0 0.00 0.00 0.00 75 1021.2
20260905083658 60 231 16.0 21.0 0.00 0.00 0.00 84 1021.2
20260905083217 62 234 15.0 18.0 0.00 0.00 0.00 74 1021.2
20260905082736 62 234 13.0 19.0 0.00 0.00 0.00 76 1021.2
20260905082256 61 222 13.0 15.0 0.00 0.00 0.00 87 1021.2
20260905081815 62 230 12.0 18.0 0.00 0.00 0.00 74 1021.1
20260905081334 61 241 12.0 17.0 0.00 0.00 0.00 83 1021.2
20260905080854 61 230 14.0 20.0 0.00 0.00 0.00 81 1021.3
20260905080413 61 237 12.0 18.0 0.00 0.00 0.00 83 1021.2
20260905075933 61 232 11.0 15.0 0.00 0.00 0.00 85 1021.3
20260905075452 61 244 10.0 17.0 0.00 0.00 0.00 86 1021.2
20260905075011 60 230 11.0 17.0 0.00 0.00 0.00 85 1021.1
20260905074531 60 237 9.0 14.0 0.00 0.00 0.00 88 1021.1
20260905074050 59 234 12.0 17.0 0.00 0.00 0.00 87 1021.2
20260905073610 59 235 12.0 16.0 0.00 0.00 0.00 88 1020.9
20260905073129 59 246 12.0 15.0 0.00 0.00 0.00 89 1021.1
20260905072649 59 230 11.0 15.0 0.00 0.00 0.00 91 1021.0
20260905072208 59 241 10.0 19.0 0.00 0.00 0.00 92 1021.1
20260905071728 58 234 11.0 14.0 0.00 0.00 0.00 92 1020.8
20260905071247 58 237 10.0 13.0 0.00 0.00 0.00 93 1020.8
20260905070807 58 234 9.0 12.0 0.00 0.00 0.00 95 1020.8
20260905070326 58 230 8.0 12.0 0.00 0.00 0.00 96 1020.7
20260905065846 57 225 8.0 11.0 0.00 0.00 0.00 97 1020.7
20260905065405 57 221 8.0 11.0 0.00 0.00 0.00 97 1020.7
20260905064925 57 234 8.0 11.0 0.00 0.00 0.00 98 1020.9
20260905064445 56 228 8.0 10.0 0.00 0.00 0.00 99 1020.9
20260905064004 56 236 8.0 11.0 0.00 0.00 0.00 98 1020.8
20260905063524 56 230 9.0 13.0 0.00 0.00 0.00 98 1020.9
20260905063043 56 222 8.0 12.0 0.00 0.00 0.00 99 1020.8
20260905062603 56 219 8.0 12.0 0.00 0.00 0.00 100 1020.7
20260905062123 56 226 8.0 10.0 0.00 0.00 0.00 100 1020.9
20260905061642 56 238 8.0 10.0 0.00 0.00 0.00 100 1020.8
20260905061202 56 222 8.0 10.0 0.00 0.00 0.00 100 1020.8
20260905060721 56 228 7.0 9.0 0.00 0.00 0.00 100 1020.8
20260905060241 55 243 7.0 8.0 0.00 0.00 0.00 100 1020.7
20260905055801 55 228 5.0 7.0 0.00 0.00 0.00 100 1020.7
20260905055321 55 222 6.0 7.0 0.00 0.00 0.00 100 1020.6
20260905054840 55 232 7.0 9.0 0.00 0.00 0.00 100 1020.5
20260905054400 54 226 7.0 8.0 0.00 0.00 0.00 100 1020.4
20260905053920 54 222 6.0 8.0 0.00 0.00 0.00 100 1020.3
20260905053439 54 225 8.0 9.0 0.00 0.00 0.00 100 1020.1
20260905052959 54 228 7.0 8.0 0.00 0.00 0.00 100 1020.0
20260905052519 54 231 7.0 9.0 0.00 0.00 0.00 100 1020.0
20260905052039 54 231 7.0 9.0 0.00 0.00 0.00 100 1019.9
20260905051558 53 234 7.0 9.0 0.00 0.00 0.00 100 1019.8
20260905051118 53 234 8.0 9.0 0.00 0.00 0.00 100 1019.7
20260905050638 53 231 8.0 9.0 0.00 0.00 0.00 100 1019.6
20260905050158 53 231 9.0 11.0 0.00 0.00 0.00 100 1019.6
20260905045718 53 225 8.0 10.0 0.00 0.00 0.00 100 1019.5
20260905045237 53 228 6.0 9.0 0.00 0.00 0.00 100 1019.4
20260905044757 53 244 6.0 7.0 0.00 0.00 0.00 100 1019.2
20260905044317 53 252 6.0 10.0 0.00 0.00 0.00 100 1019.2
20260905043837 54 255 7.0 10.0 0.00 0.00 0.00 100 1019.2
20260905043357 53 254 7.0 10.0 0.00 0.00 0.00 100 1019.1
20260905042916 53 228 8.0 10.0 0.00 0.00 0.00 100 1019.2
20260905042436 53 243 8.0 10.0 0.00 0.00 0.00 100 1019.1
20260905041956 53 225 7.0 9.0 0.00 0.00 0.00 100 1019.0
20260905041516 53 225 8.0 12.0 0.00 0.00 0.00 100 1019.0
20260905041036 53 240 8.0 12.0 0.00 0.00 0.00 100 1019.1
20260905040555 53 234 9.0 12.0 0.00 0.00 0.00 100 1019.0
20260905040115 53 221 11.0 13.0 0.00 0.00 0.00 100 1018.6
20260905035635 53 198 12.0 13.0 0.00 0.00 0.00 100 1018.4
20260905035155 53 203 12.0 14.0 0.00 0.00 0.00 100 1018.3
20260905034715 53 207 12.0 16.0 0.00 0.00 0.00 100 1018.2
20260905034234 53 198 12.0 15.0 0.00 0.00 0.00 100 1018.0
20260905033754 53 184 14.0 16.0 0.00 0.00 0.00 100 1017.9
20260905033314 53 183 13.0 15.0 0.00 0.00 0.00 100 1017.7
20260905032834 53 183 13.0 15.0 0.00 0.00 0.00 100 1018.2
20260905032354 53 215 12.0 14.0 0.00 0.00 0.00 100 1018.7
20260905031913 53 213 12.0 15.0 0.00 0.00 0.00 100 1018.6
20260905031433 53 193 13.0 15.0 0.00 0.00 0.00 100 1018.4
20260905030953 53 189 13.0 15.0 0.00 0.00 0.00 100 1018.3
20260905030513 53 192 12.0 14.0 0.00 0.00 0.00 100 1018.5
20260905030033 53 195 10.0 12.0 0.00 0.00 0.00 100 1018.3
20260905025552 53 206 9.0 11.0 0.00 0.00 0.00 100 1018.4
20260905025112 53 215 7.0 10.0 0.00 0.00 0.00 100 1018.8
20260905024632 53 206 7.0 10.0 0.00 0.00 0.00 100 1018.8
20260905024152 53 231 8.0 10.0 0.00 0.00 0.00 100 1018.9
20260905023711 53 217 8.0 9.0 0.00 0.00 0.00 100 1018.8
20260905023231 54 228 8.0 9.0 0.00 0.00 0.00 100 1018.5
20260905022751 54 225 7.0 10.0 0.00 0.00 0.00 96 1018.5
20260905022311 55 249 8.0 10.0 0.00 0.00 0.00 88 1018.4
20260905021830 56 255 6.0 10.0 0.00 0.00 0.00 82 1018.3
20260905021350 56 282 6.0 10.0 0.00 0.00 0.00 81 1018.1
20260905020910 56 253 6.0 9.0 0.00 0.00 0.00 83 1018.3
20260905020430 55 254 6.0 12.0 0.00 0.00 0.00 85 1018.4
20260905015949 55 269 5.0 7.0 0.00 0.00 0.00 86 1018.3
20260905015509 55 263 5.0 7.0 0.00 0.00 0.00 87 1018.4
20260905015029 55 252 5.0 6.0 0.00 0.00 0.00 87 1018.0